Temp
-6 -6 -6 -6 -7 -7 -7 -7 -7 -7 -8 -8 -8 -8 -8 -7 -7 -8 -7 -7 -7 -7 -7 -7 -7 -7 -7 -6 -6 -6 -6 -6 -7 -7 -7 -7 -8 -7 -7 -7 -6 -6 -6
-6 -6 -6 -6 -7 -7 -7 -7 -7 -7 -7 -7 -7 -8 -8 -8 -8 -8 -7 -7 -7 -7 -7 -7 -7 -6 -6 -6 -6 -6 -6 -6 -6 -6 -7 -8 -7 -6 -7 -7 -6 -6 -6
-6 -6 -6 -6 -7 -7 -7 -7 -7 -7 -7 -7 -7 -8 -8 -8 -8 -7 -7 -7 -7 -7 -7 -7 -7 -6 -6 -6 -6 -6 -7 -7 -7 -7 -7 -7 -6 -6 -7 -7 -6 -6 -6
-6 -7 -7 -6 -7 -7 -7 -7 -7 -7 -7 -7 -7 -7 -7 -7 -7 -7 -7 -7 -7 -7 -7 -7 -7 -6 -7 -6 -6 -6 -6 -6 -7 -7 -6 -7 -7 -7 -7 -6 -7 -6 -6
-7 -7 -7 -7 -7 -7 -7 -7 -7 -7 -7 -7 -7 -7 -7 -8 -7 -7 -7 -7 -7 -7 -6 -6 -6 -6 -6 -6 -6 -6 -7 -6 -6 -7 -7 -6 -6 -6 -6 -6 -6 -6 -6
-7 -7 -8 -7 -8 -7 -7 -7 -7 -7 -7 -7 -7 -7 -7 -8 -7 -7 -7 -7 -7 -7 -6 -6 -6 -6 -6 -6 -6 -6 -6 -6 -6 -7 -7 -6 -6 -6 -6 -6 -6 -6 -6
-7 -7 -7 -8 -7 -8 -8 -7 -7 -7 -7 -7 -7 -7 -7 -7 -7 -7 -7 -7 -7 -7 -6 -6 -6 -6 -6 -6 -6 -6 -6 -6 -6 -6 -6 -6 -6 -6 -6 -6 -6 -6 -6
-8 -8 -8 -8 -8 -8 -7 -7 -7 -7 -7 -7 -7 -7 -7 -7 -7 -7 -7 -7 -7 -7 -7 -6 -6 -6 -6 -6 -6 -6 -6 -6 -6 -6 -6 -6 -6 -6 -6 -6 -6 -6 -6
-8 -8 -7 -7 -7 -7 -7 -7 -7 -7 -7 -7 -7 -7 -7 -7 -7 -7 -7 -7 -7 -7 -7 -6 -6 -6 -6 -6 -6 -6 -6 -6 -6 -6 -6 -6 -6 -6 -6 -6 -6 -6 -6
-9 -8 -8 -8 -8 -8 -7 -7 -7 -7 -7 -7 -7 -7 -7 -7 -7 -7 -7 -8 -7 -7 -6 -6 -6 -6 -6 -6 -6 -6 -6 -6 -6 -6 -6 -6 -6 -6 -6 -6 -6 -6 -6
-9 -8 -8 -8 -8 -8 -8 -8 -8 -7 -7 -7 -7 -7 -7 -7 -7 -7 -7 -7 -7 -7 -7 -7 -6 -6 -6 -6 -6 -6 -6 -6 -6 -6 -6 -6 -6 -6 -6 -6 -6 -6 -6
-8 -8 -8 -8 -8 -8 -8 -8 -8 -8 -8 -7 -7 -7 -7 -7 -7 -7 -7 -7 -7 -7 -7 -7 -7 -6 -6 -6 -6 -6 -6 -6 -6 -6 -6 -6 -6 -6 -6 -6 -6 -6 -6
-8 -8 -8 -8 -8 -8 -8 -8 -8 -8 -7 -7 -7 -8 -7 -7 -7 -7 -7 -7 -7 -7 -7 -7 -7 -6 -6 -6 -6 -6 -6 -6 -6 -6 -6 -6 -6 -6 -6 -6 -6 -6 -6
-8 -8 -8 -8 -8 -8 -8 -8 -8 -8 -8 -8 -7 -7 -7 -7 -7 -7 -6 -7 -7 -7 -7 -7 -7 -7 -6 -6 -6 -6 -6 -6 -6 -6 -6 -6 -6 -7 -6 -7 -7 -6 -6
-8 -8 -8 -8 -8 -7 -7 -7 -8 -8 -8 -8 -8 -8 -7 -7 -6 -6 -7 -6 -7 -7 -7 -7 -7 -7 -6 -6 -6 -6 -6 -6 -6 -6 -6 -6 -7 -7 -7 -7 -7 -7 -6
-8 -8 -8 -8 -7 -7 -7 -7 -8 -8 -8 -8 -8 -8 -7 -7 -7 -7 -7 -7 -7 -6 -6 -7 -7 -7 -7 -6 -6 -6 -6 -6 -6 -6 -6 -6 -6 -6 -7 -7 -7 -7 -7
-8 -8 -8 -8 -8 -8 -8 -8 -8 -8 -8 -8 -8 -8 -8 -8 -7 -7 -7 -7 -7 -7 -6 -6 -6 -6 -7 -7 -6 -6 -6 -6 -6 -6 -6 -7 -6 -7 -7 -7 -7 -7 -7
-8 -7 -7 -7 -8 -8 -8 -8 -8 -8 -8 -8 -8 -8 -8 -8 -7 -7 -7 -7 -7 -7 -7 -7 -7 -7 -6 -6 -6 -6 -6 -6 -6 -6 -6 -7 -6 -7 -7 -7 -6 -7 -7
-7 -7 -7 -7 -7 -8 -8 -8 -8 -8 -8 -8 -8 -8 -8 -8 -8 -7 -7 -7 -7 -7 -7 -7 -7 -7 -7 -7 -6 -7 -6 -6 -6 -6 -7 -6 -7 -7 -7 -7 -7 -7 -7
-7 -7 -7 -7 -7 -8 -8 -8 -8 -8 -8 -8 -8 -8 -8 -8 -8 -8 -7 -7 -7 -7 -7 -6 -7 -7 -6 -7 -7 -7 -7 -6 -6 -6 -7 -7 -6 -7 -7 -7 -6 -6 -7
-7 -7 -7 -7 -8 -8 -8 -8 -8 -8 -8 -8 -8 -8 -7 -7 -7 -7 -7 -7 -7 -6 -6 -6 -7 -7 -7 -7 -7 -7 -7 -6 -7 -6 -7 -7 -7 -7 -7 -7 -6 -7 -7
-7 -7 -7 -7 -8 -8 -8 -8 -8 -8 -9 -9 -9 -8 -8 -7 -7 -7 -6 -7 -6 -6 -6 -6 -6 -7 -7 -7 -7 -7 -7 -7 -7 -7 -7 -7 -7 -7 -8 -8 -8 -7 -7
-7 -8 -8 -7 -7 -7 -8 -8 -8 -8 -8 -9 -9 -9 -8 -8 -7 -7 -7 -6 -6 -6 -6 -5 -6 -6 -6 -6 -7 -7 -6 -7 -7 -7 -7 -7 -7 -7 -7 -8 -8 -7 -8
-8 -8 -8 -8 -7 -7 -7 -8 -8 -9 -9 -9 -9 -9 -8 -8 -8 -8 -7 -7 -6 -6 -6 -6 -5 -6 -6 -6 -6 -6 -6 -7 -7 -7 -7 -6 -6 -6 -7 -7 -8 -8 -8
-8 -8 -8 -8 -8 -7 -7 -8 -8 -8 -9 -9 -9 -9 -9 -8 -8 -8 -8 -7 -7 -7 -6 -6 -6 -6 -6 -6 -5 -6 -7 -7 -7 -7 -6 -6 -7 -6 -7 -7 -8 -8 -8
-9 -8 -8 -8 -8 -8 -8 -9 -9 -9 -10 -10 -10 -10 -10 -10 -9 -8 -9 -9 -8 -8 -7 -6 -6 -6 -6 -6 -6 -6 -6 -7 -7 -7 -7 -7 -7 -7 -7 -7 -8 -8 -9
Height
5884 5884 5884 5884 5884 5885 5886 5887 5888 5889 5891 5893 5896 5897 5900 5903 5906 5908 5910 5912 5914 5916 5919 5921 5924 5926 5928 5930 5932 5933 5934 5935 5935 5935 5936 5934 5932 5931 5929 5932 5930 5928 5927
5883 5883 5884 5884 5885 5885 5886 5887 5888 5890 5891 5894 5896 5898 5900 5903 5906 5908 5911 5913 5916 5918 5920 5921 5924 5926 5928 5930 5932 5933 5934 5935 5936 5937 5935 5935 5934 5935 5932 5931 5932 5930 5928
5882 5883 5883 5884 5885 5886 5887 5887 5888 5890 5892 5893 5895 5897 5899 5902 5905 5909 5912 5914 5916 5919 5920 5922 5924 5926 5928 5929 5931 5932 5933 5935 5937 5937 5935 5936 5930 5934 5932 5934 5933 5932 5930
5881 5882 5883 5883 5885 5887 5888 5888 5889 5890 5891 5894 5895 5896 5899 5902 5905 5908 5911 5914 5915 5918 5920 5922 5924 5926 5928 5929 5930 5931 5932 5933 5934 5936 5936 5934 5934 5934 5934 5935 5936 5931 5931
5880 5881 5882 5883 5885 5886 5888 5889 5889 5890 5892 5893 5895 5897 5899 5901 5904 5906 5909 5912 5914 5917 5920 5921 5923 5925 5927 5928 5930 5931 5931 5931 5932 5934 5935 5935 5935 5935 5935 5935 5933 5931 5930
5880 5881 5882 5883 5884 5885 5886 5888 5889 5890 5891 5893 5894 5896 5898 5899 5901 5903 5907 5910 5913 5915 5919 5921 5923 5925 5927 5928 5928 5929 5930 5931 5931 5931 5932 5933 5934 5933 5934 5933 5932 5931 5931
5876 5877 5879 5881 5882 5882 5883 5886 5888 5888 5890 5891 5893 5895 5897 5898 5900 5902 5905 5908 5910 5913 5916 5919 5921 5925 5926 5928 5928 5929 5929 5930 5930 5930 5930 5930 5931 5931 5931 5931 5931 5931 5930
5875 5875 5877 5878 5880 5880 5881 5883 5885 5887 5888 5890 5891 5893 5895 5897 5899 5901 5903 5905 5907 5911 5914 5916 5919 5922 5924 5926 5928 5928 5929 5930 5930 5930 5929 5929 5929 5929 5930 5929 5929 5929 5928
5874 5875 5875 5876 5876 5877 5878 5880 5882 5884 5886 5888 5890 5891 5893 5894 5896 5898 5901 5903 5906 5909 5912 5914 5917 5919 5921 5923 5925 5926 5927 5928 5929 5929 5929 5929 5928 5928 5928 5928 5927 5927 5925
5872 5873 5873 5874 5875 5876 5877 5878 5879 5881 5882 5884 5886 5888 5890 5891 5892 5894 5897 5899 5902 5906 5909 5912 5915 5916 5918 5920 5921 5922 5924 5925 5926 5927 5927 5927 5927 5927 5927 5926 5925 5924 5923
5869 5869 5870 5871 5872 5873 5875 5876 5877 5879 5880 5881 5882 5884 5886 5887 5889 5891 5892 5894 5897 5899 5903 5906 5910 5912 5913 5915 5915 5917 5919 5921 5922 5923 5924 5925 5925 5925 5924 5923 5923 5922 5921
5866 5866 5867 5867 5868 5870 5872 5873 5874 5875 5876 5877 5878 5879 5881 5883 5885 5887 5888 5891 5892 5894 5896 5898 5903 5907 5909 5911 5911 5912 5915 5916 5918 5919 5920 5920 5921 5921 5921 5920 5920 5919 5917
5863 5864 5864 5865 5865 5865 5866 5868 5870 5871 5872 5872 5873 5873 5875 5878 5880 5882 5884 5886 5888 5889 5891 5893 5896 5899 5903 5905 5906 5907 5909 5910 5912 5913 5915 5916 5916 5916 5916 5915 5915 5915 5914
5858 5860 5861 5862 5862 5862 5863 5864 5865 5866 5867 5868 5868 5869 5870 5871 5872 5874 5877 5879 5882 5884 5886 5888 5890 5893 5896 5899 5901 5903 5903 5905 5907 5908 5908 5910 5911 5911 5910 5910 5910 5909 5908
5851 5853 5855 5856 5858 5858 5858 5859 5859 5859 5860 5861 5862 5864 5865 5866 5865 5868 5870 5872 5874 5877 5879 5882 5884 5886 5888 5891 5895 5896 5897 5899 5900 5901 5902 5903 5903 5904 5904 5904 5903 5903 5902
5846 5847 5849 5850 5851 5852 5853 5853 5852 5852 5852 5853 5855 5857 5858 5859 5859 5859 5862 5865 5867 5869 5872 5875 5877 5879 5881 5883 5886 5888 5890 5892 5894 5894 5895 5895 5895 5896 5896 5896 5896 5896 5895
5842 5843 5844 5844 5844 5844 5845 5845 5845 5844 5844 5844 5845 5847 5849 5851 5852 5853 5852 5853 5858 5861 5865 5867 5869 5871 5873 5875 5877 5879 5881 5883 5886 5886 5887 5888 5888 5887 5888 5888 5888 5888 5887
5837 5838 5838 5838 5838 5836 5836 5836 5836 5836 5836 5836 5837 5838 5840 5843 5844 5846 5846 5846 5849 5852 5854 5857 5860 5862 5865 5867 5868 5870 5870 5873 5876 5878 5878 5879 5880 5879 5880 5879 5879 5879 5878
5830 5831 5831 5831 5831 5830 5829 5829 5828 5828 5827 5828 5828 5830 5830 5832 5834 5836 5838 5839 5840 5843 5845 5846 5849 5851 5855 5858 5859 5859 5860 5863 5866 5867 5869 5870 5871 5871 5870 5870 5869 5870 5870
5822 5823 5824 5824 5824 5823 5822 5821 5821 5820 5821 5820 5820 5820 5821 5822 5824 5826 5828 5829 5830 5833 5834 5837 5839 5841 5844 5846 5849 5849 5849 5853 5857 5858 5858 5858 5861 5861 5861 5860 5859 5858 5858
5815 5815 5816 5816 5815 5815 5815 5813 5812 5813 5812 5812 5812 5812 5812 5813 5814 5815 5816 5818 5820 5821 5824 5826 5828 5830 5832 5835 5839 5837 5837 5841 5845 5845 5847 5848 5848 5849 5849 5848 5848 5847 5847
5809 5807 5808 5808 5806 5806 5806 5805 5805 5804 5803 5803 5802 5802 5801 5802 5802 5803 5803 5805 5807 5809 5812 5814 5817 5819 5821 5823 5826 5824 5827 5830 5833 5832 5835 5838 5836 5837 5836 5836 5835 5834 5834
5801 5801 5800 5800 5799 5798 5796 5796 5796 5795 5795 5794 5794 5792 5791 5790 5791 5791 5791 5792 5793 5796 5799 5802 5805 5807 5810 5813 5815 5815 5816 5818 5821 5820 5824 5824 5824 5824 5824 5822 5821 5821 5822
5793 5793 5793 5792 5791 5790 5789 5787 5786 5786 5787 5786 5784 5782 5781 5779 5780 5779 5777 5777 5779 5782 5785 5789 5793 5797 5800 5802 5804 5804 5805 5807 5810 5811 5811 5811 5811 5810 5812 5811 5811 5811 5810
5787 5787 5786 5785 5785 5784 5783 5781 5779 5779 5778 5778 5777 5775 5772 5767 5766 5766 5763 5762 5764 5767 5770 5776 5780 5784 5788 5792 5794 5794 5795 5798 5799 5802 5797 5798 5799 5800 5800 5800 5799 5798 5799
5780 5780 5780 5779 5778 5778 5777 5775 5774 5774 5773 5772 5770 5770 5765 5759 5754 5751 5751 5748 5751 5753 5757 5762 5768 5773 5777 5781 5782 5784 5786 5789 5790 5786 5788 5787 5786 5787 5787 5787 5789 5789 5788
Wind_Speed
8 7 6 4 3 2 1 3 6 6 15 15 18 19 19 19 17 16 16 16 17 19 19 19 18 18 16 14 10 7 4 5 5 5 6 5 8 11 12 10 10 12 12
9 10 8 6 4 2 1 3 5 6 11 16 16 17 18 20 18 18 19 18 18 19 19 20 20 18 16 12 7 4 3 3 1 1 1 3 2 8 4 8 7 10 11
10 10 10 8 7 4 3 4 5 6 10 12 14 20 22 22 22 21 20 20 19 20 20 20 20 18 15 11 8 5 3 2 2 0 1 2 5 3 7 5 7 9 9
9 11 12 12 10 7 6 5 6 7 10 12 10 15 21 21 21 22 21 22 21 21 21 21 20 18 15 12 9 5 5 3 3 3 1 3 3 4 4 3 4 8 8
10 10 14 12 12 10 8 7 7 8 10 12 13 15 19 21 21 24 24 26 23 23 23 22 21 19 16 13 10 8 7 6 6 6 4 4 5 5 3 6 6 9 10
10 11 16 13 11 12 13 11 10 8 9 11 13 16 16 18 21 24 24 26 27 25 25 24 22 20 17 14 13 12 11 9 10 10 10 7 8 6 5 6 7 8 9
8 10 12 13 13 13 15 15 13 12 9 8 12 13 16 16 17 20 23 24 29 27 27 26 24 21 18 15 13 13 12 11 11 12 13 11 10 8 7 7 8 9 9
7 6 9 11 11 12 12 15 15 14 12 11 10 11 13 14 17 15 20 24 29 31 27 28 27 24 21 19 19 18 15 14 14 14 13 14 13 11 9 9 9 11 10
7 6 6 8 8 10 10 13 15 15 14 14 13 12 13 13 14 15 17 21 23 29 26 27 28 25 23 23 22 20 18 18 15 15 16 16 15 13 11 10 10 12 13
13 10 9 8 8 7 10 16 16 17 17 15 15 15 14 14 14 14 17 19 23 27 27 28 26 25 25 24 25 24 23 20 21 19 19 18 17 16 14 13 13 13 15
16 14 14 13 11 10 9 10 13 17 17 18 17 17 17 17 16 16 17 20 23 25 26 30 31 28 27 27 27 24 24 23 23 21 21 20 19 18 17 17 16 16 18
18 18 16 17 17 15 15 14 14 13 17 19 21 20 19 18 21 20 20 22 23 24 27 29 32 32 31 29 27 24 24 24 23 23 22 22 21 21 20 19 19 19 19
21 22 21 20 21 22 21 19 19 18 20 21 19 20 25 24 24 26 24 23 24 25 26 27 28 32 33 31 29 27 26 25 24 25 24 24 23 22 23 22 21 23 23
27 26 24 23 25 27 28 28 28 27 25 23 23 23 22 25 26 25 26 27 27 27 26 27 27 29 32 31 31 30 29 26 26 25 24 25 27 25 24 25 24 26 26
22 21 21 22 23 25 27 28 29 30 31 30 29 26 25 28 28 30 29 30 29 31 30 28 30 30 30 30 30 31 32 30 29 28 26 27 28 27 28 28 28 29 29
23 23 23 24 25 25 26 27 29 30 31 33 35 34 30 29 30 27 36 38 34 35 35 32 32 31 31 31 32 33 34 33 33 31 30 30 31 31 31 31 33 34 34
23 23 25 26 27 29 30 29 30 31 33 34 36 37 36 33 31 29 28 38 36 36 35 37 37 36 35 35 35 35 37 36 36 34 33 33 33 34 34 35 35 35 36
25 24 24 25 26 30 30 30 32 33 34 35 36 37 39 38 37 33 31 32 38 39 38 38 41 40 40 40 39 39 41 38 36 37 38 37 34 37 37 39 38 39 40
20 22 23 26 29 30 31 32 32 31 33 34 36 37 39 42 40 39 37 35 37 39 37 43 42 42 42 47 43 44 45 44 41 43 44 43 39 41 41 42 43 43 42
22 24 26 29 29 29 30 31 31 33 32 34 36 36 38 41 44 44 43 43 42 38 39 40 42 43 44 45 44 46 48 48 45 47 45 47 45 44 44 45 45 45 45
24 28 30 30 30 28 28 31 34 33 34 34 35 37 38 40 42 46 48 48 45 46 42 41 42 43 41 44 48 49 49 48 46 49 47 46 50 47 46 49 47 48 48
26 30 30 28 29 31 33 34 31 31 32 36 37 37 40 43 44 45 46 48 49 47 46 43 43 41 40 40 39 46 47 47 47 49 51 52 56 54 50 51 54 52 50
29 28 26 24 25 29 33 32 35 36 35 34 33 35 38 38 38 42 49 49 50 50 48 45 41 42 43 41 40 41 47 48 47 52 47 53 55 57 54 52 49 52 50
27 24 23 23 25 25 24 25 30 33 31 28 32 37 37 38 39 40 42 43 51 52 53 50 46 42 42 41 40 43 45 49 47 47 50 55 54 56 53 55 49 47 48
21 20 20 19 18 19 20 22 24 24 26 28 31 32 34 40 41 37 40 42 43 50 52 54 52 48 44 42 41 41 43 45 43 49 51 52 60 62 60 57 52 59 58
17 20 20 19 19 18 16 17 20 21 22 23 26 27 33 36 38 32 30 36 35 41 48 51 53 52 48 41 39 42 41 38 46 52 52 47 56 53 52 53 52 49 44
Wind_Direction
227 235 228 199 157 123 187 201 201 216 213 208 198 199 200 200 195 188 180 181 178 178 177 177 179 175 173 171 165 158 130 121 100 96 59 50 64 49 46 33 72 68 68
220 229 237 228 195 185 224 230 218 226 207 206 207 211 209 206 201 198 192 191 191 185 185 183 182 180 178 170 170 155 131 136 121 80 45 65 283 247 4 28 43 56 63
222 226 232 240 236 221 230 245 231 213 203 204 215 215 208 205 202 201 200 198 200 192 189 184 182 182 181 170 178 184 188 178 318 14 139 25 29 54 49 17 25 39 50
255 229 231 234 241 244 228 240 244 218 213 207 212 207 207 211 211 210 207 200 204 198 193 187 186 187 187 185 188 177 205 220 257 192 216 331 351 358 20 1 47 20 32
246 252 234 232 244 245 247 242 243 242 221 215 214 217 220 220 217 214 217 211 209 204 200 197 194 196 197 200 202 208 206 225 252 243 259 300 299 309 332 351 1 0 356
238 226 224 231 241 245 244 243 245 243 246 230 215 213 222 224 220 220 216 216 213 210 210 206 205 208 209 214 216 223 208 232 240 248 256 261 267 278 295 306 345 351 344
265 226 209 213 227 230 241 243 241 244 247 249 241 226 222 225 225 223 222 219 214 213 213 217 218 222 226 230 222 212 231 237 245 248 255 259 257 268 283 305 320 334 336
245 234 226 237 238 233 240 242 244 242 246 250 249 248 238 234 236 234 230 229 223 218 218 223 226 230 235 237 236 240 249 255 264 251 252 255 254 260 272 288 307 318 326
241 244 252 254 251 237 244 235 242 243 237 249 251 251 249 243 242 241 234 232 226 222 225 230 231 231 235 242 246 253 258 264 263 259 258 257 256 262 268 276 287 305 310
244 250 264 276 272 257 253 255 246 235 249 247 241 245 250 253 243 243 243 240 233 230 232 237 237 236 238 244 248 249 252 256 261 262 264 261 260 266 270 274 279 291 297
239 251 257 262 255 260 263 263 264 250 243 246 243 243 246 249 253 245 243 237 238 235 234 238 235 235 235 238 242 249 252 253 257 260 262 265 263 263 269 273 279 290 290
239 251 262 270 272 265 265 268 263 257 254 255 252 250 238 240 248 249 251 247 235 238 237 233 238 235 237 242 244 249 250 253 257 260 261 260 262 266 268 268 274 280 286
236 243 249 258 264 269 268 263 264 262 253 254 253 251 249 247 251 247 250 252 250 246 238 235 230 232 237 245 246 247 246 248 254 258 260 260 261 263 266 267 271 281 281
239 242 246 248 252 257 261 265 266 264 262 258 254 255 245 249 249 240 242 245 251 251 245 241 237 238 243 247 251 251 248 249 253 256 258 260 264 265 267 269 272 274 279
243 246 247 250 255 260 264 266 267 264 259 260 259 256 256 255 254 251 244 241 238 249 248 245 243 239 243 246 246 251 253 252 253 255 260 261 262 264 266 268 271 275 281
243 252 259 264 267 269 271 271 270 269 265 260 259 258 253 254 253 259 246 251 244 243 243 242 244 245 244 242 245 250 253 255 255 256 260 262 263 263 266 268 273 276 280
244 252 260 264 268 271 272 272 269 266 263 262 259 256 256 255 256 257 260 248 249 243 244 246 239 242 241 245 245 249 254 255 259 262 264 265 264 264 267 269 273 277 279
245 248 253 262 266 269 270 268 268 266 264 262 261 259 255 254 252 253 256 249 241 243 246 245 246 243 245 243 244 249 252 254 258 261 263 263 266 268 270 273 274 274 276
250 258 264 269 270 272 270 270 268 265 264 263 262 260 256 253 253 252 252 254 251 249 250 247 244 245 247 247 246 250 250 254 252 257 260 263 265 269 270 271 275 278 279
265 267 270 273 273 270 268 266 264 263 265 264 264 263 259 257 254 254 253 252 253 253 254 252 250 248 243 246 239 251 256 249 258 256 257 261 263 264 268 269 273 274 275
267 270 273 275 272 267 271 271 269 269 267 264 261 262 262 261 259 256 252 251 254 250 252 252 250 252 250 248 247 255 254 252 254 255 256 259 259 261 262 266 267 270 273
266 272 278 273 269 272 273 272 271 270 270 269 266 264 260 257 257 257 258 256 253 248 248 250 251 249 249 252 249 252 252 252 256 259 260 263 260 262 260 264 267 268 272
263 271 271 272 271 275 275 273 261 267 276 276 267 267 267 266 267 263 258 255 254 252 249 248 247 246 250 251 253 256 254 254 260 260 264 264 263 263 267 260 260 269 273
265 267 267 279 274 276 283 270 265 269 272 267 267 269 270 270 270 269 265 262 253 250 248 246 246 246 251 251 257 262 257 259 263 263 258 267 266 265 270 263 263 265 264
264 266 277 282 278 281 275 266 263 263 267 270 271 275 279 279 279 274 266 261 255 249 247 244 245 244 246 251 260 265 257 258 267 266 264 263 264 266 269 264 259 266 271
267 278 279 281 285 281 269 263 266 271 271 271 274 287 293 296 296 278 272 262 254 249 246 245 244 246 250 253 260 263 256 258 252 263 258 264 267 262 263 266 268 255 267